Weather reports worldwide

Advertisment
Church Lawford, United Kingdom (3544): temperature & dewpoint: 24.09.2020 07:00:00 - 30.09.2020 07:00:00 (BST)Church Lawford, United Kingdom (3544): temperature -20cm & temperature -100cm: 24.09.2020 07:00:00 - 30.09.2020 07:00:00 (BST)Church Lawford, United Kingdom (3544): wind speed & gusts: 24.09.2020 07:00:00 - 30.09.2020 07:00:00 (BST)Church Lawford, United Kingdom (3544): wind direction: 24.09.2020 07:00:00 - 30.09.2020 07:00:00 (BST)Church Lawford, United Kingdom (3544): reduced air pressure: 24.09.2020 07:00:00 - 30.09.2020 07:00:00 (BST)Church Lawford, United Kingdom (3544): visibility: 24.09.2020 07:00:00 - 30.09.2020 07:00:00 (BST)Church Lawford, United Kingdom (3544): precipitation: 24.09.2020 07:00:00 - 30.09.2020 07:00:00 (BST)
Date & Time tt [°C] td [°C] tt -20cm [°C] tt -100cm [°C] ff [km/h] ff [kn] fx [km/h] fx [kn] dd ppp [hPa] vv [km] rr [mm]
30.09.2020 07:00:00 9,3 8,0 - - 5 3 - - S 1009,3 26 0,0
30.09.2020 06:00:00 8,7 7,7 - - 5 3 - - S 1009,7 21 0,0
30.09.2020 05:00:00 8,3 7,6 - - 5 3 - - S 1010,4 30 0,0
30.09.2020 04:00:00 7,1 5,6 - - 4 2 - - S 1011,2 30 0,0
30.09.2020 03:00:00 8,8 7,1 - - 4 2 - - S 1012,0 35 0,0
30.09.2020 02:00:00 9,8 6,7 - - 4 2 - - SSW 1012,7 28 0,0
30.09.2020 01:00:00 10,9 7,8 - - 4 2 - - SSW 1013,2 30 0,0
30.09.2020 00:00:00 11,1 8,2 - - 5 3 - - S 1013,5 22 0,0
29.09.2020 23:00:00 10,1 8,9 - - 5 3 - - S 1013,9 13 0,0
29.09.2020 22:00:00 9,5 8,6 - - 4 2 - - S 1014,6 10 0,0
29.09.2020 21:00:00 10,0 8,4 - - 2 1 - - S 1014,8 12 0,0
29.09.2020 20:00:00 11,6 9,2 - - 4 2 - - S 1014,9 22 0,0
29.09.2020 19:00:00 12,8 9,3 - - 2 1 - - S 1014,9 24 0,0
29.09.2020 18:00:00 15,1 9,4 - - 2 1 - - S 1014,8 30 0,0
29.09.2020 17:00:00 16,3 9,6 - - 4 2 - - W 1014,9 30 0,0
29.09.2020 16:00:00 16,3 7,7 - - 8 4 - - WNW 1015,2 35 0,0
29.09.2020 15:00:00 16,3 8,7 - - 5 3 - - NW 1015,4 40 -
29.09.2020 14:00:00 16,2 10,2 - - 5 3 - - NNW 1015,9 30 0,0
29.09.2020 13:00:00 15,8 11,1 - - 5 3 - - N 1016,2 23 0,0
29.09.2020 12:00:00 14,2 11,1 - - 5 3 - - N 1016,2 13 0,0
29.09.2020 11:00:00 13,7 11,4 - - 9 5 - - NE 1016,4 16 0,0
29.09.2020 10:00:00 12,8 11,6 14,0 14,7 8 4 - - NNE 1016,2 8 0,0
29.09.2020 09:00:00 12,5 11,6 - - 9 5 - - NNW 1015,9 5 0,0
29.09.2020 08:00:00 12,5 11,7 - - 8 4 - - N 1015,4 5 0,0
29.09.2020 07:00:00 12,5 11,9 - - 9 5 - - NNW 1015,0 3,6 0,0
29.09.2020 06:00:00 12,5 12,0 - - 9 5 - - N 1014,6 4,2 0,0
29.09.2020 05:00:00 12,6 12,0 - - 11 6 - - NNW 1014,3 3,6 0,0
29.09.2020 04:00:00 12,9 12,4 - - 11 6 - - NW 1014,2 2,8 0,0
29.09.2020 03:00:00 13,3 12,9 - - 9 5 - - NNW 1014,2 2,7 0,0
29.09.2020 02:00:00 13,6 13,2 - - 9 5 - - NNW 1013,9 3,0 0,0
29.09.2020 01:00:00 14,0 13,6 - - 8 4 - - NW 1013,8 2,5 0,4
29.09.2020 00:00:00 14,1 13,6 - - 2 1 - - S 1013,8 1,1 0,4
28.09.2020 23:00:00 14,4 13,8 - - 4 2 - - SSW 1013,7 2,8 1,2
28.09.2020 22:00:00 14,7 13,0 - - 5 3 - - SW 1013,7 11 0,0
28.09.2020 21:00:00 14,9 12,1 - - 4 2 - - S 1013,3 26 0,0
28.09.2020 20:00:00 14,8 11,9 - - 2 1 - - S 1013,1 30 0,0
28.09.2020 19:00:00 15,3 11,5 - - 4 2 - - SW 1013,0 35 0,0
28.09.2020 18:00:00 16,0 11,4 - - 5 3 - - SW 1012,6 45 0,0
28.09.2020 17:00:00 16,6 11,1 - - 8 4 - - SW 1012,2 40 0,0
28.09.2020 16:00:00 15,6 11,0 - - 11 6 - - W 1012,2 35 0,0
28.09.2020 15:00:00 14,5 9,8 - - 11 6 - - W 1012,6 30 0,0
28.09.2020 14:00:00 14,2 8,6 - - 8 4 - - WSW 1013,0 50 0,0
28.09.2020 13:00:00 12,9 7,4 - - 8 4 - - WSW 1013,3 29 0,0
28.09.2020 12:00:00 11,9 6,6 - - 9 5 - - WSW 1013,6 35 0,0
28.09.2020 11:00:00 10,8 6,5 - - 5 3 - - SW 1013,6 25 0,0
28.09.2020 10:00:00 8,5 6,2 13,7 14,7 5 3 - - SW 1013,8 20 0,0
28.09.2020 09:00:00 4,7 4,3 - - 4 2 - - S 1013,9 18 0,0
28.09.2020 08:00:00 3,4 3,1 - - 5 3 - - WSW 1013,9 16 0,0
28.09.2020 07:00:00 2,6 2,1 - - 4 2 - - S 1013,8 11 0,0
28.09.2020 06:00:00 3,6 3,1 - - 9 5 - - W 1013,7 15 0,0
28.09.2020 05:00:00 3,5 1,8 - - 2 1 - - WSW 1013,9 14 0,0
28.09.2020 04:00:00 5,4 3,6 - - 9 5 - - WNW 1014,3 25 0,0
28.09.2020 03:00:00 5,4 3,7 - - 9 5 - - WNW 1014,7 29 0,0
28.09.2020 02:00:00 6,4 4,3 - - 11 6 - - WNW 1015,0 23 0,0
28.09.2020 01:00:00 6,7 5,1 - - 4 2 - - W 1015,1 17 0,0
28.09.2020 00:00:00 6,8 5,3 - - 8 4 - - WNW 1015,2 14 0,0
27.09.2020 23:00:00 7,0 5,4 - - 5 3 - - NW 1015,4 20 0,0
27.09.2020 22:00:00 7,7 5,7 - - 8 4 - - WNW 1015,5 35 0,0
27.09.2020 21:00:00 7,5 5,5 - - 2 1 - - NNW 1015,2 30 0,0
27.09.2020 20:00:00 8,7 5,5 - - 5 3 - - NNE 1014,9 35 0,0
27.09.2020 19:00:00 9,9 5,8 - - 8 4 - - NNE 1014,4 25 0,0
27.09.2020 18:00:00 12,3 6,4 - - 11 6 - - NNE 1014,1 28 0,0
27.09.2020 17:00:00 13,4 6,4 - - 15 8 - - NE 1013,9 35 0,0
27.09.2020 16:00:00 14,2 4,8 - - 16 9 - - N 1013,9 35 0,0
27.09.2020 15:00:00 14,1 5,1 - - 21 11 - - NNW 1014,2 30 0,0
27.09.2020 14:00:00 13,5 5,2 - - 16 9 - - N 1014,5 30 0,0
27.09.2020 13:00:00 13,1 5,3 - - 21 11 - - N 1014,5 23 0,0
27.09.2020 12:00:00 11,9 4,8 - - 18 10 - - N 1014,8 27 0,0
27.09.2020 11:00:00 11,5 5,4 - - 21 11 - - N 1014,8 17 0,0
27.09.2020 10:00:00 9,1 4,4 - - 15 8 - - NNW 1014,7 23 0,0
27.09.2020 09:00:00 8,5 4,3 - - 16 9 - - NNW 1014,8 19 0,0
27.09.2020 08:00:00 9,1 4,3 - - 18 10 - - N 1014,3 20 0,0
27.09.2020 07:00:00 8,3 4,4 - - 15 8 - - NNW 1014,1 21 0,0
27.09.2020 06:00:00 8,2 4,1 - - 18 10 - - NNW 1014,3 22 0,0
27.09.2020 05:00:00 9,3 4,2 - - 21 11 - - NNW 1014,3 19 0,0
27.09.2020 04:00:00 9,6 4,1 - - 22 12 - - N 1014,5 15 0,0
27.09.2020 03:00:00 9,7 4,3 - - 21 11 - - N 1014,4 24 0,0
27.09.2020 02:00:00 9,7 4,5 - - 21 11 - - N 1014,8 27 0,0
27.09.2020 01:00:00 9,8 4,2 - - 18 10 - - N 1014,8 25 0,0
27.09.2020 00:00:00 10,0 4,7 - - 18 10 - - N 1015,1 24 0,0
26.09.2020 23:00:00 10,3 4,4 - - 22 12 - - NNW 1015,0 30 0,0
26.09.2020 22:00:00 10,2 4,9 - - 21 11 - - N 1015,0 16 0,0
26.09.2020 21:00:00 10,5 5,0 - - 22 12 - - N 1015,0 29 0,0
26.09.2020 20:00:00 10,6 5,7 - - 16 9 - - NNW 1014,6 30 0,0
26.09.2020 19:00:00 10,8 5,4 - - 21 11 - - NNW 1014,2 45 0,0
26.09.2020 18:00:00 11,2 5,5 - - 22 12 - - N 1013,8 30 0,0
26.09.2020 17:00:00 11,3 5,3 - - 29 16 - - NNW 1013,5 40 0,0
26.09.2020 16:00:00 11,3 4,6 - - 21 11 - - NNW 1013,4 45 0,0
26.09.2020 15:00:00 11,2 3,8 - - 24 13 - - NNW 1012,9 35 0,0
26.09.2020 14:00:00 11,6 4,6 - - 29 16 - - NNW 1012,7 17 0,0
26.09.2020 13:00:00 12,1 3,8 - - 26 14 - - NNW 1012,6 30 0,0
26.09.2020 12:00:00 10,7 2,6 - - 26 14 - - NNW 1012,7 50 0,0
26.09.2020 11:00:00 9,2 2,4 - - 26 14 48 26 NNW 1012,7 45 0,0
26.09.2020 10:00:00 8,3 1,7 - - 26 14 - - NNW 1012,4 35 0,0
26.09.2020 09:00:00 7,0 1,2 - - 22 12 - - NW 1012,4 45 0,0
26.09.2020 08:00:00 5,5 0,9 - - 16 9 - - NW 1012,1 45 0,0
26.09.2020 07:00:00 5,1 1,3 - - 13 7 - - NW 1011,9 40 0,0
26.09.2020 06:00:00 5,4 1,9 - - 13 7 - - WNW 1011,7 40 0,0
26.09.2020 05:00:00 5,9 2,3 - - 16 9 - - NW 1011,5 45 0,0
26.09.2020 04:00:00 6,0 2,5 - - 15 8 - - NW 1011,5 40 0,0
26.09.2020 03:00:00 6,5 3,3 - - 15 8 - - WNW 1011,4 45 0,0
26.09.2020 02:00:00 7,0 4,1 - - 15 8 - - NW 1011,2 40 0,0
26.09.2020 01:00:00 7,4 4,7 - - 13 7 - - NW 1011,0 50 0,0
26.09.2020 00:00:00 8,3 5,1 - - 13 7 - - NW 1010,7 25 0,0
25.09.2020 23:00:00 9,1 5,4 - - 16 9 - - NW 1010,6 24 0,0
25.09.2020 22:00:00 10,0 4,8 - - 22 12 - - NW 1010,6 50 0,0
25.09.2020 21:00:00 10,5 4,9 - - 16 9 - - NW 1010,1 35 0,0
25.09.2020 20:00:00 11,0 3,8 - - 21 11 - - NW 1009,2 50 0,0
25.09.2020 19:00:00 11,7 4,1 - - 22 12 54 29 NW 1008,3 50 0,0
25.09.2020 18:00:00 12,7 4,1 - - 26 14 54 29 NW 1007,6 45 0,0
25.09.2020 17:00:00 13,3 3,1 - - 31 17 55 30 NW 1006,9 45 0,0
25.09.2020 16:00:00 13,6 2,9 - - 37 20 59 32 NW 1006,3 45 0,0
25.09.2020 15:00:00 13,3 3,5 - - 31 17 57 31 NW 1005,8 50 0,0
25.09.2020 14:00:00 12,7 3,1 - - 35 19 55 30 NW 1005,3 40 0,0
25.09.2020 13:00:00 11,2 3,6 - - 34 18 54 29 NNW 1005,1 40 0,0
25.09.2020 12:00:00 11,2 4,4 - - 29 16 46 25 NNW 1004,4 29 0,0
25.09.2020 11:00:00 9,8 4,6 - - 31 17 55 30 NNW 1003,8 45 0,0
25.09.2020 10:00:00 9,6 4,9 14,9 15,5 29 16 55 30 NW 1002,7 30 0,0
25.09.2020 09:00:00 7,5 4,3 - - 28 15 - - NW 1001,7 45 0,0
25.09.2020 08:00:00 7,0 4,3 - - 26 14 - - NW 1001,0 40 0,0
25.09.2020 07:00:00 7,4 5,0 - - 21 11 - - NW 999,8 40 0,0
25.09.2020 06:00:00 8,0 5,8 - - 21 11 - - NW 998,7 50 0,0
25.09.2020 05:00:00 7,3 6,1 - - 15 8 - - NW 997,9 35 0,0
25.09.2020 04:00:00 7,2 6,3 - - 16 9 - - NW 997,1 40 0,0
25.09.2020 03:00:00 6,0 5,6 - - 11 6 - - NW 996,7 23 0,0
25.09.2020 02:00:00 5,3 4,9 - - 8 4 - - NW 996,3 11 0,0
25.09.2020 01:00:00 5,2 4,8 - - 8 4 - - NNW 996,0 12 0,0
25.09.2020 00:00:00 5,5 5,0 - - 9 5 - - NW 995,5 12 0,0
24.09.2020 23:00:00 5,6 4,5 - - 4 2 - - N 994,9 45 0,0
24.09.2020 22:00:00 6,2 4,6 - - 5 3 - - NE 994,5 45 0,0
24.09.2020 21:00:00 7,1 5,6 - - 4 2 - - ENE 994,0 45 0,0
24.09.2020 20:00:00 7,6 5,6 - - 5 3 - - NE 993,5 50 0,0
24.09.2020 19:00:00 9,3 6,3 - - 9 5 - - NE 993,2 50 0,0
24.09.2020 18:00:00 11,3 7,4 - - 5 3 - - NNW 993,0 40 0,0
24.09.2020 17:00:00 10,4 5,2 - - 4 2 - - S 993,0 35 0,0
24.09.2020 16:00:00 11,7 6,0 - - 5 3 - - SW 993,2 45 0,0
24.09.2020 15:00:00 11,0 6,8 - - 8 4 - - WSW 993,9 15 0,4
24.09.2020 14:00:00 11,5 6,7 - - 9 5 - - WSW 994,3 30 0,8
24.09.2020 13:00:00 12,6 6,5 - - 11 6 - - WSW 994,0 35 0,0
24.09.2020 12:00:00 10,9 6,9 - - 11 6 46 25 SW 994,3 45 1,0
24.09.2020 11:00:00 12,4 5,8 - - 22 12 - - WSW 994,1 40 0,0
24.09.2020 10:00:00 11,7 7,2 15,7 15,7 15 8 - - SW 993,8 45 0,0
24.09.2020 09:00:00 10,0 7,9 - - 9 5 - - SSW 993,5 50 0,0
24.09.2020 08:00:00 9,2 8,0 - - 11 6 - - S 993,3 30 0,2
24.09.2020 07:00:00 8,4 7,1 - - 8 4 - - SSE 993,8 45 0,0

tt = temperature
td = dewpoint
tt -20cm = temperature -20cm
tt -100cm = temperature -100cm
ff = wind speed
fx = gusts
dd = wind direction
ppp = reduced air pressure
vv = visibility
rr = precipitation

Next stations